Regional Weather Roundup
Issued by NWS Jackson, KY

Home | Current Version | Previous Version | Graphics & Text | Print | Product List | Glossary On
Versions: 1 2 3 4 5 6 7 8 9 10 11 12 13 14 15 16 17 18 19 20 21 22 23 24 25 26 27
000
ASUS43 KJKL 202210
RWRJKL

EAST KENTUCKY HOURLY WEATHER ROUNDUP
NATIONAL WEATHER SERVICE JACKSON KY
600 PM EDT THU JUL 20 2017

NOTE: "FAIR" INDICATES FEW OR NO CLOUDS BELOW 12,000 FEET WITH
NO SIGNIFICANT WEATHER AND/OR OBSTRUCTIONS TO VISIBILITY.

* THESE REPORTS ARE NOT UNDER NWS QUALITY CONTROL AND MAY NOT
  REPORT WEATHER SUCH AS PRECIPITATION AND FOG.

KYZ079-080-083-085-087-088-110-112-115-119-120-202300
...EASTERN KENTUCKY...

CITY           SKY/WX    TMP DP  RH WIND       PRES   REMARKS
JACKSON        SUNNY     88  70  55 CALM      30.07F HX  93
LONDON         PTSUNNY   87  69  54 W5        30.07F HX  91
SOMERSET*      MOSUNNY   86  68  54 CALM      30.07F
MONTICELLO*    CLOUDY    89  75  63 W13       30.07F HX  99
WILLIAMSBURG*  PTCLDY    86  72  62 CALM      30.07F HX  92
MIDDLESBORO*   CLOUDY    89  67  48 N3        30.07F HX  91
HARLAN APT*    CLOUDY    86  61  42 CALM      30.09F
PIKE CO APT*     N/A     85  67  54 CALM      30.07F
BIG SANDY APT* PTCLDY    87  68  52 CALM      30.06F HX  91
MOREHEAD APT*  PTCLDY    88  72  58 SW8       30.05F HX  94
ASHLAND*         N/A    N/A N/A N/A MISG        N/A
$$

KYZ035-036-041-042-044-050-067-078-099-202300
...CENTRAL KENTUCKY...

CITY           SKY/WX    TMP DP  RH WIND       PRES   REMARKS
MT STERLING*   CLOUDY    86  73  66 SW5       30.06S HX  93
FLEMING/MASON* CLOUDY    90  73  56 SW9       30.04S HX  98
DANVILLE*      MOSUNNY   90  72  55 W6        30.05F HX  96
LEXINGTON      MOSUNNY   90  71  53 SW9       30.04F HX  96
FRANKFORT      CLOUDY    91  73  55 VRB7      30.02S HX  99
LOUISVILLE     PTSUNNY   94  71  47 W14       30.00F HX 101
LEBANON*         N/A     91  73  55 S6        30.04F HX 100
GLASGOW*       MOSUNNY   90  71  52 W5        30.04S HX  96
BOWLING GREEN  MOSUNNY   93  73  52 SW9       30.03F HX 102
$$

KYZ091>093-OHZ055-061-077-WVZ005-015-034-035-042-202300
...SOUTHERN OHIO/WEST VIRGINIA...

CITY           SKY/WX    TMP DP  RH WIND       PRES   REMARKS
COVINGTON      PTSUNNY   89  76  65 SW8       30.02F HX 100
COLUMBUS       CLOUDY    85  76  74 W9        29.99F HX  94
DAYTON         PTSUNNY   83  73  72 W8        30.02F
WILMINGTON     MOSUNNY   85  78  80 W10       30.02F HX  96
HUNTINGTON     MOSUNNY   87  71  58 S6        30.01F HX  93
CHARLESTON     MOSUNNY   88  65  46 SW7       30.02F HX  90
PINEVILLE*     PTSUNNY   83  67  57 MISG      30.13F
BECKLEY        CLOUDY    83  61  47 W8        30.13F
BLUEFIELD      CLOUDY    79  63  57 NW8       30.16F
LOGAN CO APT*    N/A     86  68  54 CALM      30.08F
$$

VAZ002-007-008-TNZ017-027-036-066-071-202300
...SOUTHWEST VIRGINIA/EAST TENNESSEE...

CITY           SKY/WX    TMP DP  RH WIND       PRES   REMARKS
WISE*          CLOUDY    86  55  35 N3        30.16F
JONESVILLE*      N/A     90  66  45 NW3       30.09F HX  92
ABINGDON*      MOSUNNY   87  68  53 NW3       30.11S HX  90
BRISTOL        PTSUNNY   89  67  47 W9        30.08F HX  92
MORRISTOWN*    CLEAR     88  68  51 NW8       30.06F HX  91
SEVIERVILLE*   CLEAR     91  63  38 NE8       30.04F HX  92
KNOXVILLE      PTSUNNY   91  65  41 N8        30.04F HX  93
LAFOLLETTE*    CLEAR     88  70  55 CALM      30.09F HX  92
OAK RIDGE      MOSUNNY   92  69  47 CALM      30.06F HX  97
CROSSVILLE     MOSUNNY   85  69  58 N6        30.13F
NASHVILLE      PTSUNNY   95  67  39 NE5       30.06F HX  99
$$

...KEY TO REMARKS...
VSB - VISIBILITY IN MILES
WCI - WIND CHILL INDEX
HX  - HEAT INDEX

$$




USA.gov is the U.S. government's official web portal to all federal, state and local government web resources and services.